Dumas, TX

2:18 PM CDT on August 18, 2017 (GMT -0500)
Moore County

Weather History for KDUX - April, 2014

Change the Weather History Date:

Monday, April 28, 2014

  Actual Average (KDHT) Record (KDHT)
Temperature  
Mean Temperature 52 °F -  
Max Temperature 68 °F 70 °F 88 °F (1951)
Min Temperature 36 °F 40 °F 27 °F (2008)
Degree Days  
Heating Degree Days 14    
Growing Degree Days 2 (Base 50)    
Moisture  
Dew Point 28 °F    
Average Humidity 46    
Maximum Humidity 93    
Minimum Humidity 13    
Precipitation  
Precipitation 0.00 in - - ()
Sea Level Pressure  
Sea Level Pressure 29.70 in    
Wind  
Wind Speed 4 mph (NNW)    
Max Wind Speed 31 mph    
Max Gust Speed 43 mph    
Visibility 10 miles    
Events      
Averages and records for this station are not official NWS values.
T = Trace of Precipitation, MM = Missing Value Source: NWS Daily Summary

Daily Weather History Graph

Daily Weather History Graph

Search for Another Location

Airport or City:

Trip Planner

Search our weather history database for the weather conditions in past years. The results will help you decide how hot, cold, wet, or windy it might be!

Date:

Astronomy

Apr. 28, 2014 Rise Set
Actual Time 6:59 AM CDT 8:32 PM CDT
Civil Twilight 6:31 AM CDT 8:59 PM CDT
Nautical Twilight 5:59 AM CDT 9:32 PM CDT
Astronomical Twilight 5:24 AM CDT 10:07 PM CDT
Moon 6:36 AM CDT (4/28) 8:13 PM CDT (4/28)
Length of Visible Light 14h 27m
Length of Day
13h 33m
Waning Crescent, 0% of the Moon is Illuminated
Apr 28
Waning Crescent
Apr 29
New
May 6
First Quarter
May 14
Full
May 21
Last Quarter

Hourly Weather History & Observations

Time (CDT) Temp. Dew Point Humidity Pressure Visibility Wind Dir Wind Speed Gust Speed Precip Events Conditions
12:15 AM 47.3 °F 38.3 °F 71% 29.64 in 10.0 mi Calm Calm - N/A   Clear
12:35 AM 47.7 °F 37.2 °F 67% 29.65 in 10.0 mi Calm Calm - N/A   Scattered Clouds
12:55 AM 47.5 °F 38.1 °F 70% 29.66 in 10.0 mi Calm Calm - N/A   Clear
1:15 AM 48.4 °F 36.1 °F 63% 29.65 in 10.0 mi Calm Calm - N/A   Scattered Clouds
1:35 AM 47.1 °F 37.6 °F 69% 29.65 in 10.0 mi Calm Calm - N/A   Scattered Clouds
1:55 AM 45.9 °F 37.4 °F 72% 29.66 in 10.0 mi Calm Calm - N/A   Scattered Clouds
2:15 AM 47.1 °F 37.0 °F 68% 29.66 in 10.0 mi Calm Calm - N/A   Mostly Cloudy
2:35 AM 45.9 °F 38.5 °F 75% 29.65 in 10.0 mi Calm Calm - N/A   Scattered Clouds
2:55 AM 46.2 °F 37.4 °F 71% 29.64 in 10.0 mi Calm Calm - N/A   Scattered Clouds
3:15 AM 44.4 °F 36.1 °F 73% 29.64 in 10.0 mi Calm Calm - N/A   Clear
3:35 AM 43.9 °F 35.4 °F 72% 29.64 in 10.0 mi Calm Calm - N/A   Clear
3:55 AM 43.0 °F 36.5 °F 78% 29.65 in 10.0 mi Calm Calm - N/A   Clear
4:15 AM 43.7 °F 37.0 °F 77% 29.65 in 10.0 mi Calm Calm - N/A   Clear
4:35 AM 42.8 °F 37.6 °F 82% 29.65 in 10.0 mi Calm Calm - N/A   Clear
4:55 AM 43.2 °F 37.8 °F 81% 29.66 in 10.0 mi Calm Calm - N/A   Clear
5:15 AM 44.1 °F 37.8 °F 78% 29.66 in 10.0 mi Calm Calm - N/A   Clear
5:35 AM 42.8 °F 37.6 °F 82% 29.67 in 10.0 mi Calm Calm - N/A   Clear
5:55 AM 43.3 °F 37.8 °F 81% 29.67 in 10.0 mi Calm Calm - N/A   Clear
6:15 AM 42.4 °F 37.0 °F 81% 29.67 in 10.0 mi Calm Calm - N/A   Clear
6:35 AM 39.0 °F 35.6 °F 88% 29.67 in 10.0 mi Calm Calm - N/A   Clear
6:55 AM 37.2 °F 34.2 °F 89% 29.68 in 10.0 mi Calm Calm - N/A   Clear
7:15 AM 36.9 °F 34.9 °F 93% 29.69 in 10.0 mi Calm Calm - N/A   Clear
7:35 AM 38.1 °F 35.6 °F 91% 29.69 in 10.0 mi Calm Calm - N/A   Clear
7:55 AM 41.5 °F 38.3 °F 88% 29.69 in 10.0 mi Calm Calm - N/A   Clear
8:15 AM 43.9 °F 38.5 °F 81% 29.69 in 10.0 mi Calm Calm - N/A   Clear
8:55 AM 48.4 °F 35.6 °F 61% 29.71 in 10.0 mi Calm Calm - N/A   Clear
9:15 AM 49.8 °F 32.9 °F 52% 29.71 in 10.0 mi Calm Calm - N/A   Clear
9:35 AM 50.0 °F 34.5 °F 55% 29.70 in 10.0 mi Calm Calm - N/A   Clear
9:55 AM 51.8 °F 34.7 °F 52% 29.71 in 10.0 mi Calm Calm - N/A   Clear
10:15 AM 53.6 °F 33.6 °F 47% 29.71 in 10.0 mi Calm Calm - N/A   Clear
10:35 AM 57.0 °F 29.1 °F 35% 29.71 in 10.0 mi WNW 10.4 mph - N/A   Clear
10:55 AM 58.8 °F 26.4 °F 29% 29.70 in 10.0 mi WNW 10.4 mph - N/A   Clear
11:15 AM 60.6 °F 22.1 °F 23% 29.70 in 10.0 mi WNW 11.5 mph 24.2 mph N/A   Clear
11:35 AM 62.1 °F 20.3 °F 20% 29.70 in 10.0 mi NW 23.0 mph 27.6 mph N/A   Clear
12:15 PM 62.1 °F 18.1 °F 18% 29.71 in 10.0 mi NW 24.2 mph 33.4 mph N/A   Clear
12:35 PM 63.9 °F 20.3 °F 19% 29.70 in 10.0 mi WNW 17.3 mph 26.5 mph N/A   Clear
12:55 PM 62.4 °F 18.9 °F 19% 29.69 in 10.0 mi NNW 17.3 mph 21.9 mph N/A   Clear
1:15 PM 62.6 °F 17.2 °F 17% 29.69 in 10.0 mi NW 16.1 mph 26.5 mph N/A   Clear
1:35 PM 64.8 °F 17.1 °F 16% 29.68 in 10.0 mi NW 17.3 mph 27.6 mph N/A   Clear
1:55 PM 63.7 °F 15.4 °F 15% 29.68 in 10.0 mi WNW 15.0 mph 21.9 mph N/A   Clear
2:15 PM 67.1 °F 16.0 °F 14% 29.67 in 10.0 mi West 17.3 mph 26.5 mph N/A   Clear
2:35 PM 64.8 °F 14.4 °F 14% 29.67 in 10.0 mi WNW 13.8 mph 23.0 mph N/A   Clear
2:55 PM 65.7 °F 12.2 °F 13% 29.66 in 10.0 mi NW 20.7 mph 27.6 mph N/A   Clear
3:15 PM 65.3 °F 13.1 °F 13% 29.67 in 10.0 mi NW 10.4 mph 19.6 mph N/A   Clear
3:35 PM 64.0 °F 12.0 °F 13% 29.67 in 10.0 mi Calm Calm - N/A   Clear
4:15 PM 65.3 °F 15.3 °F 14% 29.66 in 10.0 mi NW 4.6 mph - N/A   Clear
4:35 PM 65.3 °F 13.6 °F 14% 29.66 in 10.0 mi North 3.5 mph - N/A   Clear
4:55 PM 66.7 °F 14.5 °F 13% 29.66 in 10.0 mi NNW 13.8 mph 21.9 mph N/A   Clear
5:15 PM 66.7 °F 14.9 °F 14% 29.66 in 10.0 mi NW 13.8 mph 19.6 mph N/A   Clear
5:35 PM 66.6 °F 14.9 °F 14% 29.67 in 10.0 mi North 10.4 mph 19.6 mph N/A   Clear
5:55 PM 65.1 °F 15.4 °F 15% 29.68 in 10.0 mi NNW 19.6 mph 24.2 mph N/A   Clear
6:15 PM 66.6 °F 15.4 °F 14% 29.68 in 10.0 mi NW 15.0 mph - N/A   Clear
6:35 PM 63.5 °F 20.3 °F 19% 29.67 in 10.0 mi NNE 17.3 mph 25.3 mph N/A   Clear
6:55 PM 61.0 °F 21.2 °F 22% 29.69 in 10.0 mi NNE 15.0 mph 18.4 mph N/A   Clear
7:15 PM 59.4 °F 21.9 °F 24% 29.70 in 10.0 mi NNE 13.8 mph 21.9 mph N/A   Clear
7:35 PM 58.3 °F 23.7 °F 26% 29.71 in 10.0 mi NNE 17.3 mph - N/A   Clear
7:55 PM 58.1 °F 23.9 °F 27% 29.72 in 10.0 mi NNE 11.5 mph - N/A   Clear
8:15 PM 57.6 °F 23.7 °F 27% 29.75 in 10.0 mi North 11.5 mph 16.1 mph N/A   Scattered Clouds
8:35 PM 54.0 °F 28.2 °F 37% 29.78 in 10.0 mi North 31.1 mph 42.6 mph N/A   Scattered Clouds
8:55 PM 52.7 °F 28.9 °F 40% 29.78 in 10.0 mi NNW 18.4 mph 35.7 mph N/A   Clear
9:15 PM 52.9 °F 27.5 °F 38% 29.79 in 10.0 mi North 20.7 mph 24.2 mph N/A   Clear
9:55 PM 51.6 °F 31.1 °F 45% 29.85 in 10.0 mi NNW 15.0 mph 24.2 mph N/A   Scattered Clouds
10:15 PM 52.0 °F 30.0 °F 43% 29.86 in 10.0 mi Calm Calm - N/A   Scattered Clouds
10:35 PM 51.8 °F 29.7 °F 43% 29.86 in 10.0 mi Calm Calm - N/A   Clear
10:55 PM 51.8 °F 30.0 °F 43% 29.86 in 10.0 mi Calm Calm - N/A   Clear
11:15 PM 50.9 °F 30.7 °F 46% 29.87 in 10.0 mi NNW 8.1 mph - N/A   Clear
11:35 PM 50.4 °F 29.7 °F 45% 29.89 in 10.0 mi Calm Calm - N/A   Clear
11:55 PM 50.0 °F 28.9 °F 44% 29.89 in 10.0 mi Calm Calm - N/A   Clear